[Show "Revision History"] [Show "General Page Infos"] [Show "Page hits and edits"]

Revision History

Showing page edit history entries from 1 to 79 out of 79 entries total. (5 | 10 | 25 | 50 | 100 | 200 items per page)

# Date Size Editor Comment Action
79 2011-08-16 03:14:19 38314 to previous NoelBergman Close Report view
78 2011-08-15 14:10:36 38284 to previous CarlTrieloff   view
77 2011-08-15 12:47:19 38256 to previous mariosandreou   view
76 2011-08-15 10:51:55 34721 to previous BertrandDelacretaz   view
75 2011-08-13 13:45:01 34722 to previous AteDouma   view
74 2011-08-12 23:27:20 34717 to previous DavidLutterkort   view
73 2011-08-12 05:24:17 33903 to previous DennisLundberg   view
72 2011-08-12 02:28:11 33887 to previous JoeOcaba   view
71 2011-08-11 21:40:19 33126 to previous KevanMiller   view
70 2011-08-11 20:15:42 33119 to previous ArvindPrabhakar   view
69 2011-08-11 16:46:12 33126 to previous PatrickHunt   view
68 2011-08-11 16:38:06 33119 to previous ChrisMattmann sign off on Giraph. view
67 2011-08-11 16:34:48 33109 to previous OwenOmalley   view
66 2011-08-11 16:32:05 33101 to previous OwenOmalley   view
65 2011-08-11 12:26:23 32648 to previous GrantIngersoll   view
64 2011-08-11 12:02:51 32632 to previous joern   view
63 2011-08-11 12:01:31 32633 to previous joern   view
62 2011-08-11 05:55:51 31472 to previous TomWhite2 Add Bigtop report view
61 2011-08-10 21:37:48 30585 to previous StefanSeelmann sign off amber view
60 2011-08-10 20:11:22 30576 to previous PidSter   view
59 2011-08-10 17:25:17 29589 to previous RossGardler sign off clerezza view
58 2011-08-10 17:19:36 29580 to previous hasan   view
57 2011-08-10 16:08:15 29370 to previous StefanBodewig sign off Lucene.NET report view
56 2011-08-10 15:46:20 29362 to previous michaelherndon   view
55 2011-08-10 15:44:44 29304 to previous michaelherndon   view
54 2011-08-10 12:26:51 29089 to previous michaelherndon   view
53 2011-08-10 09:59:33 27646 to previous RossGardler some signoffs view
52 2011-08-10 09:50:21 27619 to previous ChristianGrobmeier updated report from mailinglist view
51 2011-08-10 09:10:31 27673 to previous ScottWilson Added Wookie report view
50 2011-08-10 08:47:56 26390 to previous RetoBachmannGmuer   view
49 2011-08-10 07:01:58 25362 to previous RalphGoers   view
48 2011-08-10 05:17:58 25354 to previous TomWhite2 Signed off Flume report view
47 2011-08-10 05:09:41 25350 to previous TomWhite2 Add report for Whirr view
46 2011-08-10 02:24:44 24623 to previous JonathanHsieh   view
45 2011-08-09 19:48:45 23299 to previous aaronpeeler   view
44 2011-08-09 19:17:14 23283 to previous aaronpeeler   view
43 2011-08-09 13:02:16 22213 to previous NickBurch Tweak ODF entry, and sign off view
42 2011-08-09 11:23:02 22131 to previous robweir   view
41 2011-08-09 09:40:27 20917 to previous OlivierLamy   view
40 2011-08-09 09:33:55 20895 to previous MohammadNour - A minor modification to Sqoop monthly scheduled Incubator report. view
39 2011-08-09 09:31:09 20945 to previous MohammadNour - Added Sqoop scheduled monthly Incubator report. view
38 2011-08-09 09:24:23 19923 to previous Fabian Christ Extended Stanbol report view
37 2011-08-09 03:45:53 19558 to previous KevanMiller   view
36 2011-08-08 15:50:25 19545 to previous AlanCabrera   view
35 2011-08-08 15:38:10 19529 to previous junrao   view
34 2011-08-08 08:42:30 19476 to previous RossGardler Sign off Jena view
33 2011-08-08 08:37:45 19467 to previous Fabian Christ Edited conflict view
32 2011-08-08 08:33:04 19808 to previous AndySeaborne   view
31 2011-08-08 08:32:35 19425 to previous Fabian Christ Used new template for Stanbol view
30 2011-08-08 08:27:50 19134 to previous Fabian Christ Added a first draft for Stanbol view
29 2011-08-08 04:43:44 18540 to previous junrao   view
28 2011-08-08 04:37:28 18432 to previous junrao   view
27 2011-08-08 04:09:38 17338 to previous StefanBodewig Approve EasyAnt report view
26 2011-08-07 21:01:01 17329 to previous orcmid Brought over July OpenOffice.org report for checklist boilerplate and further customization view
25 2011-08-07 05:04:23 15518 to previous ChristianGrobmeier   view
24 2011-08-06 19:17:43 15508 to previous BryantLuk   view
23 2011-08-06 17:32:54 14762 to previous AndySeaborne   view
22 2011-08-06 17:31:29 14761 to previous AndySeaborne Add Jena report view
21 2011-08-06 05:48:46 13480 to previous GregReddin Signoff SIS view
20 2011-08-06 02:31:48 13471 to previous ChrisMattmann Spacing and formatting for SIS. view
19 2011-08-06 02:30:45 13469 to previous ChrisMattmann   view
18 2011-08-05 14:27:31 11619 to previous JeromeRenard Added report for Zeta Components view
17 2011-08-05 12:09:46 11117 to previous MohammadNour Added Deft monthly report. view
16 2011-08-05 08:30:45 10237 to previous ThorstenScherler   view
15 2011-08-04 01:36:27 9558 to previous BrettPorter use the correct list for August view
14 2011-08-03 22:48:55 9068 to previous antoine thanks Nicolas for the report view
13 2011-08-03 16:34:56 9060 to previous NicolasLalevée   view
12 2011-08-03 16:25:47 8705 to previous NicolasLalevée   view
11 2011-08-03 06:27:49 8189 to previous lresende   view
10 2011-08-03 06:22:17 7593 to previous lresende   view
9 2011-08-02 12:21:24 6600 to previous ChrisMattmann updated Barbara to include PPMC role. Signoff. view
8 2011-08-02 10:26:35 6574 to previous AteDouma   view
7 2011-08-02 10:03:55 6569 to previous RossGardler Sign off Airavata view
6 2011-08-02 06:30:55 6560 to previous OlivierLamy   view
5 2011-08-02 02:57:18 6553 to previous SureshMarru added Airavata progress view
4 2011-08-01 16:00:45 4296 to previous ChristianGrobmeier   view
3 2011-08-01 15:38:56 4078 to previous ChristianGrobmeier added ognl report view
2 2011-08-01 04:33:27 2792 to previous DavidCrossley Get this month's list of projects for reporting view
1 2011-06-01 04:19:16 1022 DavidCrossley   view